START_TIME,STEP,MOV.,M29,t_acc.,H22,t_acc.,H26,t_acc.,H30,t_acc.
1979-07-27 00:00:31.200 ,0,0,0.,24.0,0.,24.0,0.,24.0,0.,24.0
1979-07-27 00:00:55.200 ,1,1,0.,24.0,0.,24.0,0.,24.0,0.,24.0
1979-07-27 00:01:19.200 ,1,0,0.,24.0,0.,24.0,0.,24.0,0.,24.0
1979-07-27 00:01:43.200 ,2,1,0.,24.0,0.,24.0,0.,24.0,0.,24.0
1979-07-27 00:02:07.200 ,2,0,0.,24.0,0.,24.0,0.,24.0,0.,24.0
1979-07-27 00:02:31.200 ,3,1,0.,24.0,0.,24.0,0.,24.0,0.,24.0
1979-07-27 00:02:55.200 ,3,0,0.,24.0,0.,24.0,0.,24.0,0.,24.0
1979-07-27 00:03:19.200 ,4,1,0.,24.0,0.,24.0,0.,24.0,0.,24.0
1979-07-27 00:03:43.200 ,4,0,0.,24.0,0.,24.0,0.,24.0,0.,24.0
1979-07-27 00:04:07.200 ,5,1,0.,24.0,0.,24.0,0.,24.0,0.,24.0
1979-07-27 00:04:31.200 ,5,0,0.,24.0,0.,24.0,0.,24.0,0.,24.0
1979-07-27 00:04:55.200 ,6,1,0.,24.0,0.,24.0,0.,24.0,0.,24.0
1979-07-27 00:05:19.200 ,6,0,0.,24.0,0.,24.0,0.,24.0,0.,24.0
1979-07-27 00:05:43.200 ,7,1,0.,24.0,0.,24.0,0.,24.0,0.,24.0
1979-07-27 00:06:07.200 ,7,0,0.,24.0,0.,24.0,0.,24.0,0.,24.0
1979-07-27 00:06:31.200 ,7,1,0.,24.0,0.,24.0,0.,24.0,0.,24.0
1979-07-27 00:06:55.200 ,7,0,0.,24.0,0.,24.0,0.,24.0,0.,24.0
1979-07-27 00:07:19.200 ,6,1,0.,24.0,0.,24.0,0.,24.0,0.,24.0
1979-07-27 00:07:43.200 ,6,0,0.,24.0,0.,24.0,0.,24.0,0.,24.0
1979-07-27 00:08:07.200 ,5,1,0.,24.0,0.,24.0,0.,24.0,0.,24.0
1979-07-27 00:08:31.200 ,5,0,0.,24.0,0.,24.0,0.,24.0,0.,24.0
1979-07-27 00:08:55.200 ,4,1,0.,24.0,0.,24.0,0.,24.0,0.,24.0
1979-07-27 00:09:19.200 ,4,0,0.,24.0,0.,24.0,0.,24.0,0.,24.0
1979-07-27 00:09:43.200 ,3,1,0.,24.0,0.,24.0,0.,24.0,0.,24.0
1979-07-27 00:10:07.200 ,3,0,0.,24.0,0.,24.0,0.,24.0,0.,24.0
1979-07-27 00:10:31.200 ,2,1,0.,24.0,0.,24.0,0.,24.0,0.,24.0
1979-07-27 00:10:55.200 ,2,0,0.,24.0,0.,24.0,0.,24.0,0.,24.0
1979-07-27 00:11:19.200 ,1,1,0.,24.0,0.,24.0,0.,24.0,0.,24.0
1979-07-27 00:11:43.200 ,1,0,0.,24.0,0.,24.0,0.,24.0,0.,24.0
1979-07-27 00:12:07.200 ,0,1,0.,24.0,0.,24.0,0.,24.0,0.,24.0
1979-07-27 00:12:31.200 ,0,0,0.,24.0,0.,24.0,0.,24.0,0.,24.0
1979-07-27 00:12:55.200 ,0,1,0.,24.0,0.,24.0,0.,24.0,0.,24.0
1979-07-27 00:13:19.200 ,0,0,0.,24.0,0.,24.0,0.,24.0,0.,24.0
1979-07-27 00:13:43.200 ,1,1,0.,24.0,0.,24.0,0.,24.0,0.,24.0
1979-07-27 00:14:07.200 ,1,0,0.,24.0,0.,24.0,0.,24.0,0.,24.0
1979-07-27 00:14:31.200 ,2,1,0.,24.0,0.,24.0,0.,24.0,0.,24.0
1979-07-27 00:14:55.200 ,2,0,0.,24.0,0.,24.0,0.,24.0,0.,24.0
1979-07-27 00:15:19.200 ,3,1,0.,24.0,0.,24.0,0.,24.0,0.,24.0
1979-07-27 00:15:43.200 ,3,0,0.,24.0,0.,24.0,0.,24.0,0.,24.0
1979-07-27 00:16:07.200 ,4,1,0.,24.0,0.,24.0,0.,24.0,0.,24.0
1979-07-27 00:16:31.200 ,4,0,0.,24.0,0.,24.0,0.,24.0,0.,24.0
1979-07-27 00:16:55.200 ,5,1,0.,24.0,0.,24.0,0.,24.0,0.,24.0
1979-07-27 00:17:19.200 ,5,0,0.,24.0,0.,24.0,0.,24.0,0.,24.0
1979-07-27 00:17:43.200 ,6,1,0.,24.0,0.,24.0,0.,24.0,0.,24.0
1979-07-27 00:18:07.200 ,6,0,0.,24.0,0.,24.0,0.,24.0,0.,24.0
1979-07-27 00:18:31.200 ,7,0,0.,24.0,0.,24.0,0.,24.0,0.,24.0
1979-07-27 00:18:55.200 ,7,0,0.,24.0,0.,24.0,0.,24.0,0.,24.0
1979-07-27 00:19:19.200 ,5,1,0.,24.0,0.,24.0,0.,24.0,0.,24.0
1979-07-27 00:19:43.200 ,1,1,0.,24.0,0.,24.0,0.,24.0,0.,24.0
1979-07-27 00:20:07.200 ,2,1,0.,24.0,0.,24.0,0.,24.0,0.,24.0
1979-07-27 00:20:31.200 ,6,1,0.,24.0,0.,24.0,0.,24.0,0.,24.0
1979-07-27 00:20:55.200 ,5,1,0.,24.0,0.,24.0,0.,24.0,0.,24.0
1979-07-27 00:21:19.200 ,1,1,0.,24.0,0.,24.0,0.,24.0,0.,24.0
1979-07-27 00:21:43.200 ,2,1,0.,24.0,0.,24.0,0.,24.0,0.,24.0
1979-07-27 00:22:07.200 ,6,1,0.,24.0,0.,24.0,0.,24.0,0.,24.0
1979-07-27 00:22:31.200 ,5,1,0.,24.0,0.,24.0,0.,24.0,0.,24.0
1979-07-27 00:22:55.200 ,1,1,0.,24.0,0.,24.0,0.,24.0,0.,24.0
1979-07-27 00:23:19.200 ,2,1,0.,24.0,0.,24.0,0.,24.0,0.,24.0
1979-07-27 00:23:43.200 ,6,1,0.,24.0,0.,24.0,0.,24.0,0.,24.0
1979-07-27 00:24:07.200 ,5,1,0.,24.0,0.,24.0,0.,24.0,0.,24.0
1979-07-27 00:24:31.200 ,1,1,0.,24.0,0.,24.0,0.,24.0,0.,24.0
1979-07-27 00:24:55.200 ,2,1,0.,24.0,0.,24.0,0.,24.0,0.,24.0
1979-07-27 00:25:19.200 ,6,1,0.,24.0,0.,24.0,0.,24.0,0.,24.0
1979-07-27 00:25:43.200 ,5,1,0.,24.0,0.,24.0,0.,24.0,0.,24.0
1979-07-27 00:26:07.200 ,1,1,0.,24.0,0.,24.0,0.,24.0,0.,24.0
1979-07-27 00:26:31.200 ,2,1,0.,24.0,0.,24.0,0.,24.0,0.,24.0
1979-07-27 00:26:55.200 ,6,1,0.,24.0,0.,24.0,0.,24.0,0.,24.0
1979-07-27 00:27:19.190 ,5,1,0.,24.0,0.,24.0,0.,24.0,0.,24.0
1979-07-27 00:27:43.190 ,1,1,0.,24.0,0.,24.0,0.,24.0,0.,24.0
1979-07-27 00:28:07.190 ,2,1,0.,24.0,0.,24.0,0.,24.0,0.,24.0
1979-07-27 00:28:31.190 ,6,1,0.,24.0,0.,24.0,0.,24.0,0.,24.0
1979-07-27 00:28:55.190 ,5,1,0.,24.0,0.,24.0,0.,24.0,0.,24.0
1979-07-27 00:29:19.190 ,1,1,0.,24.0,0.,24.0,0.,24.0,0.,24.0
1979-07-27 00:29:43.190 ,0,0,0.,24.0,0.,24.0,0.,24.0,0.,24.0
1979-07-27 00:30:07.190 ,0,0,0.,24.0,0.,24.0,0.,24.0,0.,24.0
1979-07-27 00:30:31.190 ,5,1,0.,24.0,0.,24.0,0.,24.0,0.,24.0
1979-07-27 00:30:55.190 ,5,0,0.,24.0,0.,24.0,0.,24.0,0.,24.0
1979-07-27 00:31:19.190 ,4,1,0.,24.0,0.,24.0,0.,24.0,0.,24.0
1979-07-27 00:31:43.190 ,4,0,0.,24.0,0.,24.0,0.,24.0,0.,24.0
1979-07-27 00:32:07.190 ,3,1,0.,24.0,0.,24.0,0.,24.0,0.,24.0
1979-07-27 00:32:31.190 ,3,0,0.,24.0,0.,24.0,0.,24.0,0.,24.0
1979-07-27 00:32:55.190 ,2,1,0.,24.0,0.,24.0,0.,24.0,0.,24.0
1979-07-27 00:33:19.190 ,2,0,0.,24.0,0.,24.0,0.,24.0,0.,24.0
1979-07-27 00:33:43.190 ,1,1,0.,24.0,0.,24.0,0.,24.0,0.,24.0
1979-07-27 00:34:07.190 ,1,0,0.,24.0,0.,24.0,0.,24.0,0.,24.0
1979-07-27 00:34:31.190 ,0,1,0.,24.0,0.,24.0,0.,24.0,0.,24.0
1979-07-27 00:34:55.190 ,0,0,0.,24.0,0.,24.0,0.,24.0,0.,24.0
1979-07-27 00:35:19.190 ,0,1,0.,24.0,0.,24.0,0.,24.0,0.,24.0
1979-07-27 00:35:43.190 ,0,0,0.,24.0,0.,24.0,0.,24.0,0.,24.0
1979-07-27 00:36:07.190 ,1,1,0.,24.0,0.,24.0,0.,24.0,0.,24.0
1979-07-27 00:36:31.190 ,1,0,0.,24.0,0.,24.0,0.,24.0,0.,24.0
1979-07-27 00:36:55.190 ,2,1,0.,24.0,0.,24.0,0.,24.0,0.,24.0
1979-07-27 00:37:19.190 ,2,0,0.,24.0,0.,24.0,0.,24.0,0.,24.0
1979-07-27 00:37:43.190 ,3,1,0.,24.0,0.,24.0,0.,24.0,0.,24.0
1979-07-27 00:38:07.190 ,3,0,0.,24.0,0.,24.0,0.,24.0,0.,24.0
1979-07-27 00:38:31.190 ,4,1,0.,24.0,0.,24.0,0.,24.0,0.,24.0
1979-07-27 00:38:55.190 ,4,0,0.,24.0,0.,24.0,0.,24.0,0.,24.0
1979-07-27 00:39:19.190 ,5,1,0.,24.0,0.,24.0,0.,24.0,0.,24.0
1979-07-27 00:39:43.190 ,5,0,0.,24.0,0.,24.0,0.,24.0,0.,24.0
1979-07-27 00:40:07.190 ,6,1,0.,24.0,0.,24.0,0.,24.0,0.,24.0
1979-07-27 00:40:31.190 ,6,0,0.,24.0,0.,24.0,0.,24.0,0.,24.0
1979-07-27 00:40:55.190 ,7,1,0.,24.0,0.,24.0,0.,24.0,0.,24.0
1979-07-27 00:41:19.190 ,7,0,0.,24.0,0.,24.0,0.,24.0,0.,24.0
1979-07-27 00:41:43.190 ,7,1,0.,24.0,0.,24.0,0.,24.0,0.,24.0
1979-07-27 00:42:07.190 ,7,0,0.,24.0,0.,24.0,0.,24.0,0.,24.0
1979-07-27 00:42:31.190 ,6,1,0.,24.0,0.,24.0,0.,24.0,0.,24.0
1979-07-27 00:42:55.190 ,6,0,0.,24.0,0.,24.0,0.,24.0,0.,24.0
1979-07-27 00:43:19.190 ,5,1,0.,24.0,0.,24.0,0.,24.0,0.,24.0
1979-07-27 00:43:43.190 ,5,0,0.,24.0,0.,24.0,0.,24.0,0.,24.0
1979-07-27 00:44:07.190 ,4,1,0.,24.0,0.,24.0,0.,24.0,0.,24.0
1979-07-27 00:44:31.190 ,4,0,0.,24.0,0.,24.0,0.,24.0,0.,24.0
1979-07-27 00:44:55.190 ,3,1,0.,24.0,0.,24.0,0.,24.0,0.,24.0
1979-07-27 00:45:19.190 ,3,0,0.,24.0,0.,24.0,0.,24.0,0.,24.0
1979-07-27 00:45:43.190 ,2,1,0.,24.0,0.,24.0,0.,24.0,0.,24.0
1979-07-27 00:46:07.190 ,2,0,0.,24.0,0.,24.0,0.,24.0,0.,24.0
1979-07-27 00:46:31.190 ,1,1,0.,24.0,0.,24.0,0.,24.0,0.,24.0
1979-07-27 00:46:55.190 ,1,0,0.,24.0,0.,24.0,0.,24.0,0.,24.0
1979-07-27 00:47:19.190 ,0,1,0.,24.0,0.,24.0,0.,24.0,0.,24.0
1979-07-27 00:47:43.190 ,0,0,0.,24.0,0.,24.0,0.,24.0,0.,24.0
1979-07-27 00:48:07.190 ,0,1,1.,24.0,0.,24.0,0.,24.0,0.,24.0
1979-07-27 00:48:31.190 ,0,0,0.,24.0,0.,24.0,0.,24.0,0.,24.0
1979-07-27 00:48:55.190 ,1,1,0.,24.0,0.,24.0,0.,24.0,0.,24.0
1979-07-27 00:49:19.190 ,1,0,0.,24.0,0.,24.0,0.,24.0,0.,24.0
1979-07-27 00:49:43.190 ,2,1,0.,24.0,0.,24.0,0.,24.0,0.,24.0
1979-07-27 00:50:07.190 ,2,0,1.,24.0,0.,24.0,0.,24.0,0.,24.0
1979-07-27 00:50:31.190 ,3,1,0.,24.0,0.,24.0,0.,24.0,0.,24.0
1979-07-27 00:50:55.190 ,3,0,0.,24.0,0.,24.0,0.,24.0,0.,24.0
1979-07-27 00:51:19.190 ,4,1,0.,24.0,0.,24.0,0.,24.0,0.,24.0
1979-07-27 00:51:43.190 ,4,0,0.,24.0,0.,24.0,0.,24.0,0.,24.0
1979-07-27 00:52:07.190 ,5,1,0.,24.0,0.,24.0,0.,24.0,0.,24.0
1979-07-27 00:52:31.190 ,5,0,0.,24.0,0.,24.0,0.,24.0,0.,24.0
1979-07-27 00:52:55.190 ,6,1,0.,24.0,0.,24.0,0.,24.0,0.,24.0
1979-07-27 00:53:19.190 ,6,0,0.,24.0,0.,24.0,0.,24.0,0.,24.0
1979-07-27 00:53:43.190 ,7,1,0.,24.0,0.,24.0,0.,24.0,0.,24.0
1979-07-27 00:54:07.190 ,7,0,0.,24.0,0.,24.0,0.,24.0,0.,24.0
1979-07-27 00:54:31.190 ,7,1,0.,24.0,0.,24.0,0.,24.0,0.,24.0
1979-07-27 00:54:55.190 ,7,0,0.,24.0,0.,24.0,0.,24.0,0.,24.0
1979-07-27 00:55:19.190 ,6,1,0.,24.0,0.,24.0,0.,24.0,0.,24.0
1979-07-27 00:55:43.190 ,6,0,0.,24.0,0.,24.0,0.,24.0,0.,24.0
1979-07-27 00:56:07.190 ,5,1,0.,24.0,0.,24.0,0.,24.0,0.,24.0
1979-07-27 00:56:31.190 ,5,0,0.,24.0,0.,24.0,0.,24.0,0.,24.0
1979-07-27 00:56:55.190 ,4,1,0.,24.0,0.,24.0,0.,24.0,0.,24.0
1979-07-27 00:57:19.190 ,4,0,0.,24.0,0.,24.0,0.,24.0,0.,24.0
1979-07-27 00:57:43.190 ,3,1,0.,24.0,0.,24.0,0.,24.0,0.,24.0
1979-07-27 00:58:07.190 ,3,0,0.,24.0,0.,24.0,0.,24.0,0.,24.0
1979-07-27 00:58:31.190 ,2,1,0.,24.0,0.,24.0,0.,24.0,0.,24.0
1979-07-27 00:58:55.190 ,2,0,0.,24.0,0.,24.0,0.,24.0,0.,24.0
1979-07-27 00:59:19.190 ,1,1,0.,24.0,0.,24.0,0.,24.0,0.,24.0
1979-07-27 00:59:43.190 ,1,0,0.,24.0,0.,24.0,0.,24.0,0.,24.0
1979-07-27 01:00:07.190 ,0,1,0.,24.0,0.,24.0,0.,24.0,0.,24.0
1979-07-27 01:00:31.190 ,0,0,0.,24.0,0.,24.0,0.,24.0,0.,24.0
1979-07-27 01:00:55.190 ,0,1,0.,24.0,0.,24.0,0.,24.0,0.,24.0
1979-07-27 01:01:19.190 ,0,0,0.,24.0,0.,24.0,0.,24.0,0.,24.0
1979-07-27 01:01:43.190 ,1,1,0.,24.0,0.,24.0,0.,24.0,0.,24.0
1979-07-27 01:02:07.190 ,1,0,0.,24.0,0.,24.0,0.,24.0,0.,24.0
1979-07-27 01:02:31.190 ,2,1,0.,24.0,0.,24.0,0.,24.0,0.,24.0
1979-07-27 01:02:55.190 ,2,0,0.,24.0,0.,24.0,0.,24.0,0.,24.0
1979-07-27 01:03:19.190 ,3,1,0.,24.0,0.,24.0,0.,24.0,0.,24.0
1979-07-27 01:03:43.190 ,3,0,0.,24.0,0.,24.0,0.,24.0,0.,24.0
1979-07-27 01:04:07.190 ,4,1,0.,24.0,0.,24.0,0.,24.0,0.,24.0
1979-07-27 01:04:31.190 ,4,0,0.,24.0,0.,24.0,0.,24.0,0.,24.0
1979-07-27 01:04:55.190 ,5,1,0.,24.0,0.,24.0,0.,24.0,0.,24.0
1979-07-27 01:05:19.190 ,5,0,0.,24.0,0.,24.0,0.,24.0,0.,24.0
1979-07-27 01:05:43.190 ,6,1,0.,24.0,0.,24.0,0.,24.0,0.,24.0
1979-07-27 01:06:07.190 ,6,0,0.,24.0,0.,24.0,0.,24.0,0.,24.0
1979-07-27 01:06:31.190 ,7,0,0.,24.0,0.,24.0,0.,24.0,0.,24.0
1979-07-27 01:06:55.190 ,7,0,0.,24.0,0.,24.0,0.,24.0,0.,24.0
1979-07-27 01:07:19.190 ,5,1,0.,24.0,0.,24.0,0.,24.0,0.,24.0
1979-07-27 01:07:43.190 ,1,1,0.,24.0,0.,24.0,0.,24.0,0.,24.0
1979-07-27 01:08:07.190 ,2,1,0.,24.0,0.,24.0,0.,24.0,0.,24.0
1979-07-27 01:08:31.190 ,6,1,0.,24.0,0.,24.0,0.,24.0,0.,24.0
1979-07-27 01:08:55.190 ,5,1,0.,24.0,0.,24.0,0.,24.0,0.,24.0
1979-07-27 01:09:19.190 ,1,1,0.,24.0,0.,24.0,0.,24.0,0.,24.0
1979-07-27 01:09:43.190 ,2,1,0.,24.0,0.,24.0,0.,24.0,0.,24.0
1979-07-27 01:10:07.190 ,6,1,0.,24.0,0.,24.0,0.,24.0,0.,24.0
1979-07-27 01:10:31.190 ,5,1,0.,24.0,0.,24.0,0.,24.0,0.,24.0
1979-07-27 01:10:55.190 ,1,1,0.,24.0,0.,24.0,0.,24.0,0.,24.0
1979-07-27 01:11:19.190 ,2,1,0.,24.0,0.,24.0,0.,24.0,0.,24.0
1979-07-27 01:11:43.190 ,6,1,0.,24.0,0.,24.0,0.,24.0,0.,24.0
1979-07-27 01:12:07.190 ,5,1,0.,24.0,0.,24.0,0.,24.0,0.,24.0
1979-07-27 01:12:31.190 ,1,1,0.,24.0,0.,24.0,0.,24.0,0.,24.0
1979-07-27 01:12:55.190 ,2,1,0.,24.0,0.,24.0,0.,24.0,0.,24.0
1979-07-27 01:13:19.190 ,6,1,0.,24.0,0.,24.0,0.,24.0,0.,24.0
1979-07-27 01:13:43.190 ,5,1,0.,24.0,0.,24.0,0.,24.0,0.,24.0
1979-07-27 01:14:07.190 ,1,1,0.,24.0,0.,24.0,0.,24.0,0.,24.0
1979-07-27 01:14:31.190 ,2,1,0.,24.0,0.,24.0,0.,24.0,0.,24.0
1979-07-27 01:14:55.190 ,6,1,0.,24.0,0.,24.0,0.,24.0,0.,24.0
1979-07-27 01:15:19.190 ,5,1,0.,24.0,0.,24.0,0.,24.0,0.,24.0
1979-07-27 01:15:43.190 ,1,1,0.,24.0,0.,24.0,0.,24.0,0.,24.0
1979-07-27 01:16:07.190 ,2,1,0.,24.0,0.,24.0,0.,24.0,0.,24.0
1979-07-27 01:16:31.190 ,6,1,0.,24.0,0.,24.0,0.,24.0,0.,24.0
1979-07-27 01:16:55.190 ,5,1,0.,24.0,0.,24.0,0.,24.0,0.,24.0
1979-07-27 01:17:19.190 ,1,1,0.,24.0,0.,24.0,0.,24.0,0.,24.0
1979-07-27 01:17:43.190 ,0,0,0.,24.0,0.,24.0,0.,24.0,0.,24.0
1979-07-27 01:18:07.190 ,0,0,0.,24.0,0.,24.0,0.,24.0,0.,24.0
1979-07-27 01:18:31.190 ,5,1,0.,24.0,0.,24.0,0.,24.0,0.,24.0
1979-07-27 01:18:55.190 ,5,0,0.,24.0,0.,24.0,0.,24.0,0.,24.0
1979-07-27 01:19:19.190 ,4,1,0.,24.0,0.,24.0,0.,24.0,0.,24.0
1979-07-27 01:19:43.190 ,4,0,0.,24.0,0.,24.0,0.,24.0,0.,24.0
1979-07-27 01:20:07.190 ,3,1,0.,24.0,0.,24.0,0.,24.0,0.,24.0
1979-07-27 01:20:31.190 ,3,0,0.,24.0,0.,24.0,0.,24.0,0.,24.0
1979-07-27 01:20:55.190 ,2,1,0.,24.0,0.,24.0,0.,24.0,0.,24.0
1979-07-27 01:21:19.190 ,2,0,0.,24.0,0.,24.0,0.,24.0,0.,24.0
1979-07-27 01:21:43.190 ,1,1,0.,24.0,0.,24.0,0.,24.0,0.,24.0
1979-07-27 01:22:07.190 ,1,0,0.,24.0,0.,24.0,0.,24.0,0.,24.0
1979-07-27 01:22:31.190 ,0,1,0.,24.0,0.,24.0,0.,24.0,0.,24.0
1979-07-27 01:22:55.190 ,0,0,0.,24.0,0.,24.0,0.,24.0,0.,24.0
1979-07-27 01:23:19.190 ,0,1,0.,24.0,0.,24.0,0.,24.0,0.,24.0
1979-07-27 01:23:43.190 ,0,0,0.,24.0,0.,24.0,0.,24.0,0.,24.0
1979-07-27 01:24:07.190 ,1,1,0.,24.0,0.,24.0,0.,24.0,0.,24.0
1979-07-27 01:24:31.190 ,1,0,0.,24.0,0.,24.0,0.,24.0,0.,24.0
1979-07-27 01:24:55.190 ,2,1,0.,24.0,0.,24.0,0.,24.0,0.,24.0
1979-07-27 01:25:19.190 ,2,0,1.,24.0,0.,24.0,0.,24.0,0.,24.0
1979-07-27 01:25:43.190 ,3,1,0.,24.0,0.,24.0,0.,24.0,0.,24.0
1979-07-27 01:26:07.190 ,3,0,0.,24.0,0.,24.0,0.,24.0,0.,24.0
1979-07-27 01:26:31.190 ,4,1,0.,24.0,0.,24.0,0.,24.0,0.,24.0
1979-07-27 01:26:55.190 ,4,0,0.,24.0,0.,24.0,0.,24.0,0.,24.0
1979-07-27 01:27:19.190 ,5,1,0.,24.0,0.,24.0,0.,24.0,0.,24.0
1979-07-27 01:27:43.190 ,5,0,0.,24.0,0.,24.0,0.,24.0,0.,24.0
1979-07-27 01:28:07.190 ,6,1,0.,24.0,0.,24.0,0.,24.0,0.,24.0
1979-07-27 01:28:31.190 ,6,0,0.,24.0,0.,24.0,0.,24.0,0.,24.0
1979-07-27 01:28:55.190 ,7,1,0.,24.0,0.,24.0,0.,24.0,0.,24.0
1979-07-27 01:29:19.190 ,7,0,0.,24.0,0.,24.0,0.,24.0,0.,24.0
1979-07-27 01:29:43.190 ,7,1,0.,24.0,0.,24.0,0.,24.0,0.,24.0
1979-07-27 01:30:07.190 ,7,0,0.,24.0,0.,24.0,0.,24.0,0.,24.0
1979-07-27 01:30:31.190 ,6,1,0.,24.0,0.,24.0,0.,24.0,0.,24.0
1979-07-27 01:30:55.190 ,6,0,0.,24.0,0.,24.0,0.,24.0,0.,24.0
1979-07-27 01:31:19.190 ,5,1,0.,24.0,0.,24.0,0.,24.0,0.,24.0
1979-07-27 01:31:43.190 ,5,0,1.,24.0,0.,24.0,0.,24.0,0.,24.0
1979-07-27 01:32:07.190 ,4,1,0.,24.0,0.,24.0,0.,24.0,0.,24.0
1979-07-27 01:32:31.190 ,4,0,0.,24.0,0.,24.0,0.,24.0,0.,24.0
1979-07-27 01:32:55.190 ,3,1,0.,24.0,0.,24.0,0.,24.0,0.,24.0
1979-07-27 01:33:19.190 ,3,0,0.,24.0,0.,24.0,0.,24.0,0.,24.0
1979-07-27 01:33:43.190 ,2,1,0.,24.0,0.,24.0,0.,24.0,0.,24.0
1979-07-27 01:34:07.190 ,2,0,0.,24.0,0.,24.0,0.,24.0,0.,24.0
1979-07-27 01:34:31.190 ,1,1,0.,24.0,0.,24.0,0.,24.0,0.,24.0
1979-07-27 01:34:55.190 ,1,0,0.,24.0,0.,24.0,0.,24.0,0.,24.0
1979-07-27 01:35:19.190 ,0,1,0.,24.0,0.,24.0,0.,24.0,0.,24.0
1979-07-27 01:35:43.190 ,0,0,0.,24.0,0.,24.0,0.,24.0,0.,24.0
1979-07-27 01:36:07.190 ,0,1,0.,24.0,0.,24.0,0.,24.0,0.,24.0
1979-07-27 01:36:31.190 ,0,0,0.,24.0,0.,24.0,0.,24.0,0.,24.0
1979-07-27 01:36:55.190 ,1,1,0.,24.0,0.,24.0,0.,24.0,0.,24.0
1979-07-27 01:37:19.190 ,1,0,0.,24.0,0.,24.0,0.,24.0,0.,24.0
1979-07-27 01:37:43.190 ,2,1,0.,24.0,0.,24.0,0.,24.0,0.,24.0
1979-07-27 01:38:07.190 ,2,0,0.,24.0,0.,24.0,0.,24.0,0.,24.0
1979-07-27 01:38:31.190 ,3,1,0.,24.0,0.,24.0,0.,24.0,0.,24.0
1979-07-27 01:38:55.190 ,3,0,0.,24.0,0.,24.0,0.,24.0,0.,24.0
1979-07-27 01:39:19.190 ,4,1,2.,24.0,0.,24.0,0.,24.0,0.,24.0
1979-07-27 01:39:43.190 ,4,0,0.,24.0,0.,24.0,0.,24.0,0.,24.0
1979-07-27 01:40:07.190 ,5,1,0.,24.0,0.,24.0,0.,24.0,0.,24.0
1979-07-27 01:40:31.190 ,5,0,0.,24.0,0.,24.0,0.,24.0,0.,24.0
1979-07-27 01:40:55.190 ,6,1,0.,24.0,0.,24.0,0.,24.0,0.,24.0
1979-07-27 01:41:19.190 ,6,0,0.,24.0,0.,24.0,0.,24.0,0.,24.0
1979-07-27 01:41:43.190 ,7,1,0.,24.0,0.,24.0,0.,24.0,0.,24.0
1979-07-27 01:42:07.190 ,7,0,0.,24.0,0.,24.0,0.,24.0,0.,24.0
1979-07-27 01:42:31.190 ,7,1,0.,24.0,0.,24.0,0.,24.0,0.,24.0
1979-07-27 01:42:55.190 ,7,0,0.,24.0,0.,24.0,0.,24.0,0.,24.0
1979-07-27 01:43:19.190 ,6,1,0.,24.0,0.,24.0,0.,24.0,0.,24.0
1979-07-27 01:43:43.190 ,6,0,0.,24.0,0.,24.0,0.,24.0,0.,24.0
1979-07-27 01:44:07.190 ,5,1,0.,24.0,0.,24.0,0.,24.0,0.,24.0
1979-07-27 01:44:31.190 ,5,0,0.,24.0,0.,24.0,0.,24.0,0.,24.0
1979-07-27 01:44:55.190 ,4,1,0.,24.0,0.,24.0,0.,24.0,0.,24.0
1979-07-27 01:45:19.190 ,4,0,0.,24.0,0.,24.0,0.,24.0,0.,24.0
1979-07-27 01:45:43.190 ,3,1,0.,24.0,0.,24.0,0.,24.0,0.,24.0
1979-07-27 01:46:07.190 ,3,0,0.,24.0,0.,24.0,0.,24.0,0.,24.0
1979-07-27 01:46:31.190 ,2,1,0.,24.0,0.,24.0,0.,24.0,0.,24.0
1979-07-27 01:46:55.190 ,2,0,0.,24.0,0.,24.0,0.,24.0,0.,24.0
1979-07-27 01:47:19.190 ,1,1,0.,24.0,0.,24.0,0.,24.0,0.,24.0
1979-07-27 01:47:43.190 ,1,0,0.,24.0,0.,24.0,0.,24.0,0.,24.0
1979-07-27 01:48:07.190 ,0,1,0.,24.0,0.,24.0,0.,24.0,0.,24.0
1979-07-27 01:48:31.190 ,0,0,0.,24.0,0.,24.0,0.,24.0,0.,24.0
1979-07-27 01:48:55.190 ,0,1,0.,24.0,0.,24.0,0.,24.0,0.,24.0
1979-07-27 01:49:19.190 ,0,0,0.,24.0,0.,24.0,0.,24.0,0.,24.0
1979-07-27 01:49:43.190 ,1,1,0.,24.0,0.,24.0,0.,24.0,0.,24.0
1979-07-27 01:50:07.190 ,1,0,0.,24.0,0.,24.0,0.,24.0,0.,24.0
1979-07-27 01:50:31.190 ,2,1,0.,24.0,0.,24.0,0.,24.0,0.,24.0
1979-07-27 01:50:55.190 ,2,0,0.,24.0,0.,24.0,0.,24.0,0.,24.0
1979-07-27 01:51:19.190 ,3,1,0.,24.0,0.,24.0,0.,24.0,0.,24.0
1979-07-27 01:51:43.190 ,3,0,0.,24.0,0.,24.0,0.,24.0,0.,24.0
1979-07-27 01:52:07.190 ,4,1,0.,24.0,0.,24.0,0.,24.0,0.,24.0
1979-07-27 01:52:31.190 ,4,0,0.,24.0,0.,24.0,0.,24.0,0.,24.0
1979-07-27 01:52:55.190 ,5,1,0.,24.0,0.,24.0,0.,24.0,0.,24.0
1979-07-27 01:53:19.190 ,5,0,0.,24.0,0.,24.0,0.,24.0,0.,24.0
1979-07-27 01:53:43.190 ,6,1,0.,24.0,0.,24.0,0.,24.0,0.,24.0
1979-07-27 01:54:07.190 ,6,0,0.,24.0,0.,24.0,0.,24.0,0.,24.0
1979-07-27 01:54:31.190 ,7,0,0.,24.0,0.,24.0,0.,24.0,0.,24.0
1979-07-27 01:54:55.190 ,7,0,0.,24.0,0.,24.0,0.,24.0,0.,24.0
1979-07-27 01:55:19.190 ,5,1,0.,24.0,0.,24.0,0.,24.0,0.,24.0
1979-07-27 01:55:43.190 ,1,1,0.,24.0,0.,24.0,0.,24.0,0.,24.0
1979-07-27 01:56:07.190 ,2,1,0.,24.0,0.,24.0,0.,24.0,0.,24.0
1979-07-27 01:56:31.190 ,6,1,0.,24.0,0.,24.0,0.,24.0,0.,24.0
1979-07-27 01:56:55.190 ,5,1,0.,24.0,0.,24.0,0.,24.0,0.,24.0
1979-07-27 01:57:19.190 ,1,1,0.,24.0,0.,24.0,0.,24.0,0.,24.0
1979-07-27 01:57:43.190 ,2,1,0.,24.0,0.,24.0,0.,24.0,0.,24.0
1979-07-27 01:58:07.190 ,6,1,0.,24.0,0.,24.0,0.,24.0,0.,24.0
1979-07-27 01:58:31.190 ,5,1,0.,24.0,0.,24.0,0.,24.0,0.,24.0
1979-07-27 01:58:55.190 ,1,1,0.,24.0,0.,24.0,0.,24.0,0.,24.0
1979-07-27 01:59:19.190 ,2,1,0.,24.0,0.,24.0,0.,24.0,0.,24.0
1979-07-27 01:59:43.190 ,6,1,0.,24.0,0.,24.0,0.,24.0,0.,24.0
1979-07-27 02:00:07.190 ,5,1,0.,24.0,0.,24.0,0.,24.0,0.,24.0
1979-07-27 02:00:31.190 ,1,1,0.,24.0,0.,24.0,0.,24.0,0.,24.0
1979-07-27 02:00:55.190 ,2,1,0.,24.0,0.,24.0,0.,24.0,0.,24.0
1979-07-27 02:01:19.190 ,6,1,0.,24.0,0.,24.0,0.,24.0,0.,24.0
1979-07-27 02:01:43.190 ,5,1,0.,24.0,0.,24.0,0.,24.0,0.,24.0
1979-07-27 02:02:07.190 ,1,1,0.,24.0,0.,24.0,0.,24.0,0.,24.0
1979-07-27 02:02:31.190 ,2,1,0.,24.0,0.,24.0,0.,24.0,0.,24.0
1979-07-27 02:02:55.190 ,6,1,0.,24.0,0.,24.0,0.,24.0,0.,24.0
1979-07-27 02:03:19.190 ,5,1,0.,24.0,0.,24.0,0.,24.0,0.,24.0
1979-07-27 02:03:43.190 ,1,1,0.,24.0,0.,24.0,0.,24.0,0.,24.0
1979-07-27 02:04:07.190 ,2,1,0.,24.0,0.,24.0,0.,24.0,0.,24.0
1979-07-27 02:04:31.190 ,6,1,0.,24.0,0.,24.0,0.,24.0,0.,24.0
1979-07-27 02:04:55.190 ,5,1,0.,24.0,0.,24.0,0.,24.0,0.,24.0
1979-07-27 02:05:19.190 ,1,1,0.,24.0,0.,24.0,0.,24.0,0.,24.0
1979-07-27 02:05:43.190 ,0,0,0.,24.0,0.,24.0,0.,24.0,0.,24.0
1979-07-27 02:06:07.190 ,0,0,0.,24.0,0.,24.0,0.,24.0,0.,24.0
1979-07-27 02:06:31.190 ,5,1,0.,24.0,0.,24.0,0.,24.0,0.,24.0
1979-07-27 02:06:55.190 ,5,0,0.,24.0,0.,24.0,0.,24.0,0.,24.0
1979-07-27 02:07:19.190 ,4,1,0.,24.0,0.,24.0,0.,24.0,0.,24.0
1979-07-27 02:07:43.190 ,4,0,0.,24.0,0.,24.0,0.,24.0,0.,24.0
1979-07-27 02:08:07.190 ,3,1,0.,24.0,0.,24.0,0.,24.0,0.,24.0
1979-07-27 02:08:31.190 ,3,0,0.,24.0,0.,24.0,0.,24.0,0.,24.0
1979-07-27 02:08:55.190 ,2,1,0.,24.0,0.,24.0,0.,24.0,0.,24.0
1979-07-27 02:09:19.190 ,2,0,0.,24.0,0.,24.0,0.,24.0,0.,24.0
1979-07-27 02:09:43.190 ,1,1,0.,24.0,0.,24.0,0.,24.0,0.,24.0
1979-07-27 02:10:07.190 ,1,0,0.,24.0,0.,24.0,0.,24.0,0.,24.0
1979-07-27 02:10:31.190 ,0,1,0.,24.0,0.,24.0,0.,24.0,0.,24.0
1979-07-27 02:10:55.190 ,0,0,0.,24.0,0.,24.0,0.,24.0,0.,24.0
1979-07-27 02:11:19.190 ,0,1,1.,24.0,0.,24.0,0.,24.0,0.,24.0
1979-07-27 02:11:43.190 ,0,0,0.,24.0,0.,24.0,0.,24.0,0.,24.0
1979-07-27 02:12:07.190 ,1,1,0.,24.0,0.,24.0,0.,24.0,0.,24.0
1979-07-27 02:12:31.190 ,1,0,0.,24.0,0.,24.0,0.,24.0,0.,24.0
1979-07-27 02:12:55.190 ,2,1,0.,24.0,0.,24.0,0.,24.0,0.,24.0
1979-07-27 02:13:19.190 ,2,0,0.,24.0,0.,24.0,0.,24.0,0.,24.0
1979-07-27 02:13:43.190 ,3,1,0.,24.0,0.,24.0,0.,24.0,0.,24.0
1979-07-27 02:14:07.190 ,3,0,0.,24.0,0.,24.0,0.,24.0,0.,24.0
1979-07-27 02:14:31.190 ,4,1,0.,24.0,0.,24.0,0.,24.0,0.,24.0
1979-07-27 02:14:55.190 ,4,0,0.,24.0,0.,24.0,0.,24.0,0.,24.0
1979-07-27 02:15:19.190 ,5,1,0.,24.0,0.,24.0,0.,24.0,0.,24.0
1979-07-27 02:15:43.190 ,5,0,0.,24.0,0.,24.0,0.,24.0,0.,24.0
1979-07-27 02:16:07.190 ,6,1,0.,24.0,0.,24.0,0.,24.0,0.,24.0
1979-07-27 02:16:31.190 ,6,0,0.,24.0,0.,24.0,0.,24.0,0.,24.0
1979-07-27 02:16:55.190 ,7,1,0.,24.0,0.,24.0,0.,24.0,0.,24.0
1979-07-27 02:17:19.190 ,7,0,1.,24.0,0.,24.0,0.,24.0,0.,24.0
1979-07-27 02:17:43.190 ,7,1,0.,24.0,0.,24.0,0.,24.0,0.,24.0
1979-07-27 02:18:07.190 ,7,0,0.,24.0,0.,24.0,0.,24.0,0.,24.0
1979-07-27 02:18:31.190 ,6,1,0.,24.0,0.,24.0,0.,24.0,0.,24.0
1979-07-27 02:18:55.190 ,6,0,0.,24.0,0.,24.0,0.,24.0,0.,24.0
1979-07-27 02:19:19.190 ,5,1,0.,24.0,0.,24.0,0.,24.0,0.,24.0
1979-07-27 02:19:43.190 ,5,0,0.,24.0,0.,24.0,0.,24.0,0.,24.0
1979-07-27 02:20:07.190 ,4,1,0.,24.0,0.,24.0,0.,24.0,0.,24.0
1979-07-27 02:20:31.190 ,4,0,0.,24.0,0.,24.0,0.,24.0,0.,24.0
1979-07-27 02:20:55.190 ,3,1,0.,24.0,0.,24.0,0.,24.0,0.,24.0
1979-07-27 02:21:19.190 ,3,0,0.,24.0,0.,24.0,0.,24.0,0.,24.0
1979-07-27 02:21:43.190 ,2,1,0.,24.0,0.,24.0,0.,24.0,0.,24.0
1979-07-27 02:22:07.190 ,2,0,0.,24.0,0.,24.0,0.,24.0,0.,24.0
1979-07-27 02:22:31.190 ,1,1,0.,24.0,0.,24.0,0.,24.0,0.,24.0
1979-07-27 02:22:55.190 ,1,0,0.,24.0,0.,24.0,0.,24.0,0.,24.0
1979-07-27 02:23:19.190 ,0,1,0.,24.0,0.,24.0,0.,24.0,0.,24.0
1979-07-27 02:23:43.190 ,0,0,0.,24.0,0.,24.0,0.,24.0,0.,24.0
1979-07-27 02:24:07.190 ,0,1,0.,24.0,0.,24.0,0.,24.0,0.,24.0
1979-07-27 02:24:31.190 ,0,0,0.,24.0,0.,24.0,0.,24.0,0.,24.0
1979-07-27 02:24:55.190 ,1,1,0.,24.0,0.,24.0,0.,24.0,0.,24.0
1979-07-27 02:25:19.190 ,1,0,0.,24.0,0.,24.0,0.,24.0,0.,24.0
1979-07-27 02:25:43.190 ,2,1,0.,24.0,0.,24.0,0.,24.0,0.,24.0
1979-07-27 02:26:07.190 ,2,0,1.,24.0,0.,24.0,0.,24.0,0.,24.0
1979-07-27 02:26:31.190 ,3,1,0.,24.0,0.,24.0,0.,24.0,0.,24.0
1979-07-27 02:26:55.190 ,3,0,0.,24.0,0.,24.0,0.,24.0,0.,24.0
1979-07-27 02:27:19.190 ,4,1,0.,24.0,0.,24.0,0.,24.0,0.,24.0
1979-07-27 02:27:43.190 ,4,0,0.,24.0,0.,24.0,0.,24.0,0.,24.0
1979-07-27 02:28:07.190 ,5,1,0.,24.0,0.,24.0,0.,24.0,0.,24.0
1979-07-27 02:28:31.190 ,5,0,0.,24.0,0.,24.0,0.,24.0,0.,24.0
1979-07-27 02:28:55.190 ,6,1,0.,24.0,0.,24.0,0.,24.0,0.,24.0
1979-07-27 02:29:19.190 ,6,0,0.,24.0,0.,24.0,0.,24.0,0.,24.0
1979-07-27 02:29:43.190 ,7,1,0.,24.0,0.,24.0,0.,24.0,0.,24.0
1979-07-27 02:30:07.190 ,7,0,0.,24.0,0.,24.0,0.,24.0,0.,24.0
1979-07-27 02:30:31.190 ,7,1,0.,24.0,0.,24.0,0.,24.0,0.,24.0
1979-07-27 02:30:55.190 ,7,0,0.,24.0,0.,24.0,0.,24.0,0.,24.0
1979-07-27 02:31:19.190 ,6,1,0.,24.0,0.,24.0,0.,24.0,0.,24.0
1979-07-27 02:31:43.190 ,6,0,0.,24.0,0.,24.0,0.,24.0,0.,24.0
1979-07-27 02:32:07.190 ,5,1,0.,24.0,0.,24.0,0.,24.0,0.,24.0
1979-07-27 02:32:31.190 ,5,0,0.,24.0,0.,24.0,0.,24.0,0.,24.0
1979-07-27 02:32:55.190 ,4,1,0.,24.0,0.,24.0,0.,24.0,0.,24.0
1979-07-27 02:33:19.190 ,4,0,0.,24.0,0.,24.0,0.,24.0,0.,24.0
1979-07-27 02:33:43.190 ,3,1,0.,24.0,0.,24.0,0.,24.0,0.,24.0
1979-07-27 02:34:07.190 ,3,0,0.,24.0,0.,24.0,0.,24.0,0.,24.0
1979-07-27 02:34:31.190 ,2,1,0.,24.0,0.,24.0,0.,24.0,0.,24.0